(39428) Emilybronte = 2000 QN183 = 4169 T-2

Discovered at Palomar on 1973-09-29 by C. J. van Houten, I. van Houten-Groeneveld, and T. Gehrels.
(39428) Emilybrontë = 4169 T-2

Emily Brontë (1818-1848) wrote only one novel, Wuthering HeightsMinor Planet Circ. 55987]

Orbit

Orbit type: Main Belt

Note: WebGL enabled browser required.

epoch2023-09-13.0
epoch JD2460200.5
perihelion date2020-05-07.31142
perihelion JD2458976.81142
argument of perihelion (°)305.86608
ascending node (°)73.77769
inclination (°)3.38045
eccentricity0.2011147
perihelion distance (AU)1.9707364
Tisserand w.r.t. Jupiter3.5
ΔV w.r.t. Earth (km/sec)8.8
semimajor axis (AU)2.4668576
mean anomaly (°)311.28531
mean daily motion (°/day)0.25438280
aphelion distance (AU)2.963
period (years)3.87
P-vector [x]0.94044697
P-vector [y]0.32780029
P-vector [z]0.09003591
Q-vector [x]-0.33519234
Q-vector [y]0.85008190
Q-vector [z]0.40621037
absolute magnitude15.32
phase slope0.15
uncertainty0
referenceMPEC 2024-A55
observations used1173
oppositions20
arc length (days)18304
first opposition used1973
last opposition used2023
residual rms (arc-secs)0.73
perturbers coarse indicatorM-v
perturbers precise indicator003Ek
first observation date used1973-09-19.0
last observation date used2023-10-31.0
computer nameMPCLINUX
JD of orbit computation2456877.734085
perihelion JD uncertainty (days)3.3258E-05
argument of perihelion uncertainty (°)7.2025E-05
ascending node uncertainty (°)7.1509E-05
inclination uncertainty (°)3.7764E-06
eccentricity uncertainty 4.6765E-08
perihelion distance uncertainty (AU)1.1377E-07
Minimum Orbit Intersection Distances (in AU)
for orbit epoch: 2460200.5, reference: E2024-A55
Mercury1.62686
Venus1.24556
Earth0.97473
Mars0.54151
Jupiter2.49026
Saturn6.5522
Uranus15.5478
Neptune27.7325

Observations

1190 total observations over interval: 1973 09 19.22500 – 2023 10 31.225424
These data are available for download (format description).

Date (UT) J2000 RA J2000 Dec Magn Location Ref
1973 09 19.22500 00 40 42.36 -02 38 28.8   675 – Palomar Mountain MPS 16130
1973 09 19.27865 00 40 39.80 -02 38 44.0   675 – Palomar Mountain MPS 16130
1973 09 20.30278 00 39 53.69 -02 43 35.8   675 – Palomar Mountain MPS 16130
1973 09 24.38750 00 36 40.76 -03 02 47.6   675 – Palomar Mountain MPS 16130
1973 09 24.45434 00 36 37.31 -03 03 06.4   675 – Palomar Mountain MPS 16130
1973 09 25.28125 00 35 57.30 -03 06 56.0   675 – Palomar Mountain MPS 16130
1973 09 25.34601 00 35 53.93 -03 07 14.7   675 – Palomar Mountain MPS 16130
1973 09 29.29219 00 32 36.16 -03 24 50.0 17.8   675 – Palomar Mountain MPS 16130
1973 09 29.35694 00 32 32.70 -03 25 06.7   675 – Palomar Mountain MPS 16130
1973 09 30.24826 00 31 47.67 -03 28 52.1   675 – Palomar Mountain MPS 16130
1973 09 30.31476 00 31 44.04 -03 29 09.4   675 – Palomar Mountain MPS 16130
1973 10 04.32708 00 28 20.55 -03 45 00.2   675 – Palomar Mountain MPS 16130
1973 10 04.38889 00 28 17.14 -03 45 13.4   675 – Palomar Mountain MPS 16130
1973 10 05.35382 00 27 28.91 -03 48 40.9   675 – Palomar Mountain MPS 16130
1973 10 05.41597 00 27 25.67 -03 48 52.9   675 – Palomar Mountain MPS 16130
1993 12 14.43317 08 49 05.71 +20 59 39.7 18.9 V 691 – Steward Observatory, Kitt Peak-Spacewatch MPS 20335
1993 12 14.46930 08 49 05.04 +20 59 46.6   691 – Steward Observatory, Kitt Peak-Spacewatch MPS 20335
1993 12 14.50859 08 49 04.27 +20 59 54.2   691 – Steward Observatory, Kitt Peak-Spacewatch MPS 20335
1994 01 08.33270 08 32 24.49 +22 50 40.2   691 – Steward Observatory, Kitt Peak-Spacewatch MPS 20335
1994 01 08.36745 08 32 22.35 +22 50 49.4 18.3 V 691 – Steward Observatory, Kitt Peak-Spacewatch MPS 20335
1994 01 08.40294 08 32 20.08 +22 51 00.1   691 – Steward Observatory, Kitt Peak-Spacewatch MPS 20335
2000 08 25.26095 22 51 50.93 -14 18 34.2 16.7   704 – Lincoln Laboratory ETS, New Mexico MPS 18355
2000 08 25.27527 22 51 50.22 -14 18 38.9 17.4   704 – Lincoln Laboratory ETS, New Mexico MPS 18355
2000 08 25.31714 22 51 48.06 -14 18 54.1 17.3   704 – Lincoln Laboratory ETS, New Mexico MPS 18355
2000 09 04.31145 22 43 17.36 -15 15 04.1 17.1   704 – Lincoln Laboratory ETS, New Mexico MPS 18355
2000 09 04.32502 22 43 16.62 -15 15 08.2 17.2   704 – Lincoln Laboratory ETS, New Mexico MPS 18355
2000 09 04.33856 22 43 15.87 -15 15 12.2 17.2   704 – Lincoln Laboratory ETS, New Mexico MPS 18355
2000 09 04.35200 22 43 15.09 -15 15 16.4 17.9   704 – Lincoln Laboratory ETS, New Mexico MPS 18355
2000 09 04.36553 22 43 14.39 -15 15 19.9 17.8   704 – Lincoln Laboratory ETS, New Mexico MPS 18355
2000 09 05.26469 22 42 27.91 -15 19 53.1 17.3   704 – Lincoln Laboratory ETS, New Mexico MPS 18355
2000 09 05.27784 22 42 27.18 -15 19 57.0 17.1   704 – Lincoln Laboratory ETS, New Mexico MPS 18355
2000 09 05.29112 22 42 26.49 -15 20 00.8 17.3   704 – Lincoln Laboratory ETS, New Mexico MPS 18355
2000 09 05.30451 22 42 25.76 -15 20 04.8 17.7   704 – Lincoln Laboratory ETS, New Mexico MPS 18355
2000 09 05.31773 22 42 25.03 -15 20 09.1 17.9   704 – Lincoln Laboratory ETS, New Mexico MPS 18355
2000 09 21.20801 22 30 04.54 -16 16 53.9 17.4   704 – Lincoln Laboratory ETS, New Mexico MPS 19446
2000 09 21.22275 22 30 03.93 -16 16 54.8 17.9   704 – Lincoln Laboratory ETS, New Mexico MPS 19446
2000 09 21.23751 22 30 03.35 -16 16 56.9 18.4   704 – Lincoln Laboratory ETS, New Mexico MPS 19446
2000 09 21.25230 22 30 02.72 -16 16 59.2 18.0   704 – Lincoln Laboratory ETS, New Mexico MPS 19446
2000 09 21.26705 22 30 02.14 -16 17 00.0 17.6   704 – Lincoln Laboratory ETS, New Mexico MPS 19446
2000 09 24.18663 22 28 18.01 -16 21 39.2 17.2   704 – Lincoln Laboratory ETS, New Mexico MPS 19446
2000 09 24.19536 22 28 17.69 -16 21 39.3 17.3 R 699 – Lowell Observatory-LONEOS MPS 30389
2000 09 24.20276 22 28 17.40 -16 21 40.7 17.9   704 – Lincoln Laboratory ETS, New Mexico MPS 19446
2000 09 24.21807 22 28 16.84 -16 21 41.7 17.8   704 – Lincoln Laboratory ETS, New Mexico MPS 19446
2000 09 24.21852 22 28 16.84 -16 21 42.0   699 – Lowell Observatory-LONEOS MPS 30389
2000 09 24.23412 22 28 16.28 -16 21 43.3 17.6   704 – Lincoln Laboratory ETS, New Mexico MPS 19446
2000 09 24.24181 22 28 15.99 -16 21 43.9   699 – Lowell Observatory-LONEOS MPS 30389
2000 09 24.25025 22 28 15.68 -16 21 43.6 18.3   704 – Lincoln Laboratory ETS, New Mexico MPS 19446
2000 09 24.26496 22 28 15.17 -16 21 44.7   699 – Lowell Observatory-LONEOS MPS 30389
2000 10 02.18991 22 24 47.07 -16 24 11.9 17.6   704 – Lincoln Laboratory ETS, New Mexico MPS 19446
2000 10 02.20497 22 24 46.74 -16 24 11.2 18.2   704 – Lincoln Laboratory ETS, New Mexico MPS 19446
2000 10 02.22159 22 24 46.38 -16 24 10.0 17.6   704 – Lincoln Laboratory ETS, New Mexico MPS 19446
2000 10 02.23666 22 24 46.06 -16 24 08.4 17.7   704 – Lincoln Laboratory ETS, New Mexico MPS 19446
2000 10 02.25261 22 24 45.67 -16 24 09.3 18.3   704 – Lincoln Laboratory ETS, New Mexico MPS 19446
2000 10 27.14610 22 27 25.42 -15 00 59.0 18.5   704 – Lincoln Laboratory ETS, New Mexico MPS 21757
2000 10 27.16003 22 27 25.84 -15 00 53.7 18.2   704 – Lincoln Laboratory ETS, New Mexico MPS 21757
2000 10 27.17511 22 27 26.17 -15 00 48.8 18.6   704 – Lincoln Laboratory ETS, New Mexico MPS 21757
2000 10 27.18906 22 27 26.68 -15 00 44.1 18.8   704 – Lincoln Laboratory ETS, New Mexico MPS 21757
2000 10 27.20351 22 27 27.11 -15 00 38.8 18.1   704 – Lincoln Laboratory ETS, New Mexico MPS 21757
2000 11 02.14675 22 31 03.34 -14 23 08.3 18.4   704 – Lincoln Laboratory ETS, New Mexico MPS 21757
2000 11 02.17613 22 31 04.49 -14 22 55.3 19.2   704 – Lincoln Laboratory ETS, New Mexico MPS 21757
2000 11 02.19066 22 31 05.15 -14 22 50.9 19.0   704 – Lincoln Laboratory ETS, New Mexico MPS 21757
2000 11 02.20505 22 31 05.74 -14 22 44.0 19.2   704 – Lincoln Laboratory ETS, New Mexico MPS 21757
2000 11 18.08000 22 45 22.76 -12 15 49.2 19.2   704 – Lincoln Laboratory ETS, New Mexico MPS 23120
2000 11 18.09491 22 45 23.74 -12 15 41.4 19.4   704 – Lincoln Laboratory ETS, New Mexico MPS 23120
2000 11 18.12472 22 45 25.57 -12 15 25.7 19.4   704 – Lincoln Laboratory ETS, New Mexico MPS 23120
2000 11 18.13963 22 45 26.51 -12 15 17.6 19.3   704 – Lincoln Laboratory ETS, New Mexico MPS 23120
2002 01 14.49157 10 32 29.42 +14 02 34.8 19.7   704 – Lincoln Laboratory ETS, New Mexico MPS 50435
2002 01 14.50727 10 32 28.99 +14 02 39.4 19.6   704 – Lincoln Laboratory ETS, New Mexico MPS 50435
2002 01 14.52260 10 32 28.59 +14 02 43.5 19.5   704 – Lincoln Laboratory ETS, New Mexico MPS 50435
2002 01 18.39981 10 30 33.09 +14 20 46.4 18.7   704 – Lincoln Laboratory ETS, New Mexico MPS 50435
2002 01 18.43202 10 30 31.97 +14 20 56.5 19.5   704 – Lincoln Laboratory ETS, New Mexico MPS 50435
2002 01 18.44762 10 30 31.42 +14 21 00.3 19.3   704 – Lincoln Laboratory ETS, New Mexico MPS 50435
2002 01 18.46329 10 30 30.90 +14 21 05.7 19.2   704 – Lincoln Laboratory ETS, New Mexico MPS 50435
2002 02 04.49399 10 17 51.54 +15 56 28.3 18.9   644 – Palomar Mountain/NEAT MPS 50435
2002 02 04.50432 10 17 50.99 +15 56 32.1 19.2   644 – Palomar Mountain/NEAT MPS 50435
2002 02 04.51480 10 17 50.40 +15 56 35.8 19.4   644 – Palomar Mountain/NEAT MPS 50435
2002 02 08.37612 10 14 15.58 +16 19 47.3 19.2   704 – Lincoln Laboratory ETS, New Mexico MPS 50435
2002 02 08.39099 10 14 14.72 +16 19 52.7 19.3   704 – Lincoln Laboratory ETS, New Mexico MPS 50435
2002 02 08.40532 10 14 13.94 +16 19 58.0 19.4   704 – Lincoln Laboratory ETS, New Mexico MPS 50435
2002 02 08.41966 10 14 13.09 +16 20 03.1 18.9   704 – Lincoln Laboratory ETS, New Mexico MPS 50435
2002 02 08.43397 10 14 12.25 +16 20 09.1 19.4   704 – Lincoln Laboratory ETS, New Mexico MPS 50435
2002 02 12.31121 10 10 27.67 +16 43 07.8 19.4   704 – Lincoln Laboratory ETS, New Mexico MPS 52848
2002 02 12.32535 10 10 26.84 +16 43 13.3 19.4   704 – Lincoln Laboratory ETS, New Mexico MPS 52848
2002 02 12.33949 10 10 25.95 +16 43 17.9 19.3   704 – Lincoln Laboratory ETS, New Mexico MPS 52848
2002 02 12.35367 10 10 25.10 +16 43 22.8 19.2   704 – Lincoln Laboratory ETS, New Mexico MPS 52848
